Weather Roundup
Issued by NWS Corpus Christi, TX

Home | Current Version | Previous Version | Text Only | Print | Product List | Glossary On
Versions: 1 2 3 4 5 6 7 8 9 10 11 12 13 14 15 16 17 18 19 20 21 22 23 24 25 26 27 28 29 30 31 32 33 34 35 36 37 38 39 40 41 42 43 44 45 46 47 48 49 50
056
ASUS44 KCRP 162010
HRRCRP

SOUTH TEXAS REGIONAL WEATHER ROUNDUP
NATIONAL WEATHER SERVICE CORPUS CHRISTI TX
300 PM CDT WED AUG 16 2017


TXZ229>244-162100-
...CORPUS CHRISTI AREA OBSERVATIONS...

CITY           SKY/WX    TMP DP  RH WIND       PRES   REMARKS
CORPUS CHRISTI PTSUNNY   96  75  50 SE17G29   29.91F HX 108
NAS CORPUS CHR MOSUNNY   95  78  58 SE23G30   29.92F HX 111
ROCKPORT       SUNNY     93  76  57 SE16G24   29.93F HX 105
KINGSVILLE NAS MOSUNNY   99  78  51 SE17      29.89F HX 116
ALICE          PTSUNNY  101  66  31 SE13G21   29.87F HX 105
FALFURRIAS     MOSUNNY  100  66  33 SE16      29.87F HX 104
$$

...VICTORIA AREA OBSERVATIONS...

CITY           SKY/WX    TMP DP  RH WIND       PRES   REMARKS
VICTORIA       MOSUNNY   93  74  53 S21G28    29.93F HX 103
BEEVILLE       FAIR      99  75  46 SE13G25   29.90F HX 111
PLEASANTON     MOSUNNY  100  65  32 S10       29.89F HX 103
SAN ANTONIO    MOSUNNY   93  69  45 S12       29.92F HX  98
$$

...LAREDO AREA OBSERVATIONS...

CITY           SKY/WX    TMP DP  RH WIND       PRES   REMARKS
LAREDO         MOSUNNY  100  70  37 S17G23    29.86F HX 107
COTULLA        MOSUNNY   98  65  33 S8        29.87F HX 101
DEL RIO        SUNNY     94  72  48 SE7       29.86F HX 102
MCALLEN        MOSUNNY  101  72  39 S21G28    29.87F HX 110
HEBBRONVILLE   MOSUNNY   96  66  36 SE13G20   29.90F HX 100
$$

...OTHER TEXAS OBSERVATIONS...

CITY           SKY/WX    TMP DP  RH WIND       PRES   REMARKS
BROWNSVILLE    MOSUNNY   94  77  57 S21G26    29.91F HX 108
HOUSTON        PTSUNNY   95  76  53 S16       29.94F HX 108
COL. STATION   MOSUNNY   99  71  40 S13G23    29.91F HX 107
AUSTIN         MOSUNNY   97  71  42 S17G23    29.91F HX 104
WACO           SUNNY     97  71  42 S20G25    29.90F HX 104
FORT WORTH     CLOUDY    91  74  57 S14       29.89F HX 100
WICHITA FALLS  SUNNY     90  74  59 S16G22    29.86F HX  99
LUBBOCK        MOSUNNY   90  59  35 SE10      29.99
EL PASO        MOSUNNY   91  48  22 VRB5      30.05F
$$

...MARINE OBSERVATIONS...

STATION/POSITION TIME  SKY/WX   TEMP    WIND        PRES    VSBY  WAVE   SWELL
                                AIR SEA DIR/SP/G                  HT/PER HT/PER
                 (UTC)          (F)     (DEG/KT/KT) (MB)    (MI)  (FT/S) (FT/S)
PORT ARANSAS     1900            85 87  140/ 11/ 12 1014.5F
BUOY 90 E PORT A 1950            87 86  150/ 14/ 16 1014.9F         6/ 7   3/ 7
BUOY 45 SE BAFFI 1950            86     160/ 14/ 17 1013.1F         6/ 7   5/ 7
BUOY 200 E PT IS 1950            87 88  150/ 14/ 17 1015.8F         5/ 7   2/15
BUOY 15 E GALVES 1850            87 87  200/ 14/ 17 1016.0          4/ 7
$$




USA.gov is the U.S. government's official web portal to all federal, state and local government web resources and services.